Regional Weather Roundup
Issued by NWS Newport/Morehead, NC

Current Version | Previous Version | Graphics & Text | Print | Product List | Glossary Off
Versions: 1 2 3 4 5 6 7 8 9 10 11 12 13 14 15 16 17 18 19 20 21 22 23 24 25 26 27 28 29 30 31 32 33 34 35 36 37 38 39 40 41 42 43 44 45 46 47 48 49 50

000
ASUS42 KMHX 050825
RWRMHX
WEATHER ROUNDUP FOR EASTERN NORTH CAROLINA
NATIONAL WEATHER SERVICE NEWPORT/MOREHEAD CITY NC
400 AM EDT SUN JUL 05 2015

NOTE: "FAIR" INDICATES FEW OR NO CLOUDS BELOW 12,000 FEET
WITH NO SIGNIFICANT WEATHER AND/OR OBSTRUCTIONS TO VISIBILITY

NCZ015>017-031-032-045>047-102-103-050900-
NORTH COAST

CITY           SKY/WX    TMP DP  RH WIND       PRES   REMARKS
EDENTON        MOCLDY    73  70  91 CALM      30.05S
ELIZABETH CITY LGT RAIN  73  71  93 W10       30.04S
KITTY HAWK     CLOUDY    77  73  85 W8        30.04S
MANTEO         MOCLDY    77  72  84 W9        30.05S

$$

NCZ045>047-081-094-103-104-050900-
CENTRAL COAST

CITY           SKY/WX    TMP DP  RH WIND       PRES   REMARKS
FRISCO         MOCLDY    76  75  97 SW9       30.06S
SWANQUARTER      N/A     79 N/A N/A W13       30.03S

$$

NCZ095-097-098-100-101-050900-
SOUTHERN COAST

CITY           SKY/WX    TMP DP  RH WIND       PRES   REMARKS
BEAUFORT       MOCLDY    79  76  90 SW12      30.08R
CEDAR ISLAND     N/A     79 N/A N/A S8        30.09S
JACKSONVILLE   MOCLDY    78  69  73 SW9       30.08R
PINEY ISLAND   CLOUDY   N/A N/A N/A SW9       30.06S
WILMINGTON     PTCLDY    78  67  68 W9        30.09R


$$

NCZ011>013-027>030-043-044-078>080-089-090>093-098-050900-
COASTAL PLAIN

CITY           SKY/WX    TMP DP  RH WIND       PRES   REMARKS
AHOSKIE        MOCLDY   N/A N/A N/A CALM      30.05S
CLINTON        MOCLDY    76  72  88 S3        30.08R
ELIZABETHTOWN  MOCLDY    77  68  74 SW3       30.09R
GOLDSBORO      PTCLDY    76  73  89 SW7       30.05R
GREENVILLE     MOCLDY    72  72 100 CALM      30.07S
HAVELOCK       PTCLDY    78  72  81 SW12      30.08R
KENANSVILLE    CLOUDY    76  71  84 SW6       30.08S
KINSTON        PTCLDY    77  74  91 SW6       30.07S
NEW BERN       PTCLDY    78  72  81 SW5       30.08R
RICHLANDS      MOCLDY    77  66  69 SW9       30.08S
ROCKY MOUNT    PTCLDY    72  70  93 S5        30.06R
WASHINGTON     MOCLDY    76  71  86 SW3       30.07R
WHITEVILLE     MOCLDY    75  67  76 CALM      30.09R

$$

AMZ130-135-150-152-154-156-158-170-250-252-270-ANZ085-086-088-633-658-670-050900-
MARINE OBSERVATIONS

STATION/POSITION TIME  TEMP    WIND        PRES    WAVE   SWELL
                       AIR SEA DIR/SP/G            HT/PER HT/PER
                 (UTC) (F)     (DEG/KT/KT) (MB)    (FT/S) (FT/S)
CHESAPEAKE LIGHT 0800   75     290/  3/  3 1017.4
64 E VA BEACH    0750   76 76  250/  6/  8 1016.6    5/ 7   5/ 7
DUCK             0800   78 72  250/ 14/ 20   N/A
2 E DUCK         0811      77                N/A     2/ 6
OREGON INLET     0800   79 79  240/ 13/ 17 1017.5
13E OREGON INLT  0800      74                N/A     4/ 6
HATTERAS CG      0800   78 79  220/  7/ 10 1017.6
DIAMOND BUOY     0750   80 81  230/ 19/ 21 1017.9    5/ 5   2/ 9
CAPE LOOKOUT     0800   79     230/ 11/ 15 1018.4
BEAUFORT LAB     0800   79 80  240/  5/ 12 1017.8
30 SE NEW RVR IN NOT AVBL
27 SE WRIGHTSVLE 0800      80  240/ 12/ 16   N/A
5 SE WRIGHTSVLE  0708   80 78  230/ 12/ 16 1018.4
225 S CAPE HAT   0750   78 80  260/ 19/ 23 1021.3    4/ 6   2/15
41 SE CHARLESTON 0750   81 81  220/ 14/ 16 1018.6    3/ 9   2/ 9

$$


USA.gov is the U.S. government's official web portal to all federal, state and local government web resources and services.